TimeCET,TemperatureF,Dew PointF,Humidity,Sea Level PressureIn,VisibilityMPH,Wind Direction,Wind SpeedMPH,Gust SpeedMPH,PrecipitationIn,Events,Conditions,WindDirDegrees,DateUTC
12:00 AM,39.2,32.0,75,29.95,6.2,South,6.9,-,N/A,,Unknown,190,2012-12-03 23:00:00
12:30 AM,39.2,32.0,75,29.95,6.2,SSW,6.9,-,N/A,,Unknown,210,2012-12-03 23:30:00
1:00 AM,40,31,61,29.96,37,SSW,5.8,,,,Clear,210,2012-12-04 00:00:00
1:00 AM,41.0,32.0,70,29.95,6.2,SSW,5.8,-,N/A,,Unknown,210,2012-12-04 00:00:00
1:30 AM,41.0,32.0,70,29.95,6.2,SW,6.9,-,N/A,,Unknown,220,2012-12-04 00:30:00
2:00 AM,41.0,32.0,70,29.92,6.2,South,8.1,-,N/A,,Mostly Cloudy,190,2012-12-04 01:00:00
2:30 AM,41.0,33.8,76,29.92,6.2,SSW,6.9,-,N/A,,Mostly Cloudy,200,2012-12-04 01:30:00
4:00 AM,39.2,33.8,81,29.86,6.2,Variable,2.3,-,N/A,,Mostly Cloudy,0,2012-12-04 03:00:00
4:30 AM,41.0,35.6,81,29.86,6.2,ENE,4.6,-,N/A,,Mostly Cloudy,60,2012-12-04 03:30:00
5:30 AM,39.2,33.8,81,29.83,6.2,NNE,4.6,-,N/A,,Mostly Cloudy,20,2012-12-04 04:30:00
6:00 AM,39.2,35.6,87,29.83,6.2,SW,4.6,-,N/A,,Mostly Cloudy,230,2012-12-04 05:00:00
6:30 AM,41.0,37.4,87,29.80,6.2,Variable,2.3,-,N/A,,Mostly Cloudy,0,2012-12-04 05:30:00
7:00 AM,41,37,82,29.82,7,West,3.5,,,,Partly Cloudy,260,2012-12-04 06:00:00
7:00 AM,41.0,37.4,87,29.80,6.2,WSW,5.8,-,N/A,,Mostly Cloudy,240,2012-12-04 06:00:00
7:30 AM,41.0,37.4,87,29.80,6.2,Variable,2.3,-,N/A,,Mostly Cloudy,0,2012-12-04 06:30:00
8:00 AM,41.0,39.2,93,29.80,6.2,SSW,6.9,-,N/A,,Mostly Cloudy,210,2012-12-04 07:00:00
8:30 AM,44.6,41.0,87,29.77,6.2,SW,6.9,-,N/A,,Mostly Cloudy,230,2012-12-04 07:30:00
9:08 AM,48.2,42.8,82,29.77,6.2,Calm,Calm,-,N/A,,Mostly Cloudy,0,2012-12-04 08:08:00
9:30 AM,50.0,44.6,82,29.74,6.2,SSW,3.5,-,N/A,,Mostly Cloudy,210,2012-12-04 08:30:00
10:00 AM,53.6,46.4,77,29.74,6.2,SW,4.6,-,N/A,,Mostly Cloudy,220,2012-12-04 09:00:00
10:30 AM,57.2,48.2,72,29.71,6.2,SSW,4.6,-,N/A,,Mostly Cloudy,210,2012-12-04 09:30:00
11:00 AM,57.2,48.2,72,29.71,6.2,South,3.5,-,N/A,,Mostly Cloudy,190,2012-12-04 10:00:00
11:30 AM,59.0,50.0,72,29.71,6.2,ESE,4.6,-,N/A,Rain,Light Rain Showers,120,2012-12-04 10:30:00
12:00 PM,59.0,42.8,55,29.62,6.2,SSW,18.4,-,N/A,Rain,Light Rain Showers,210,2012-12-04 11:00:00
12:35 PM,57.2,46.4,67,29.62,6.2,SW,18.4,41.4,N/A,Rain,Light Rain Showers,220,2012-12-04 11:35:00
1:00 PM,58,44,50,29.64,7,WSW,15.0,,,Rain,Light Rain Showers,240,2012-12-04 12:00:00
1:00 PM,59.0,44.6,59,29.62,6.2,WSW,15.0,-,N/A,Rain,Light Rain Showers,240,2012-12-04 12:00:00
1:30 PM,60.8,42.8,52,29.59,6.2,SW,12.7,-,N/A,,Mostly Cloudy,220,2012-12-04 12:30:00
2:00 PM,62.6,42.8,48,29.59,6.2,Variable,4.6,-,N/A,,Mostly Cloudy,0,2012-12-04 13:00:00
2:30 PM,62.6,41.0,45,29.59,6.2,SSW,10.4,21.9,N/A,,Mostly Cloudy,210,2012-12-04 13:30:00
3:00 PM,60.8,37.4,42,29.59,6.2,SW,11.5,31.1,N/A,,Mostly Cloudy,230,2012-12-04 14:00:00
3:30 PM,60.8,33.8,36,29.56,6.2,WSW,18.4,31.1,N/A,,Partly Cloudy,250,2012-12-04 14:30:00
4:00 PM,60.8,30.2,31,29.56,6.2,WSW,20.7,38.0,N/A,,Partly Cloudy,240,2012-12-04 15:00:00
4:30 PM,59.0,30.2,34,29.56,6.2,WSW,15.0,29.9,N/A,,Partly Cloudy,240,2012-12-04 15:30:00
5:00 PM,59.0,28.4,31,29.56,6.2,WSW,20.7,38.0,N/A,,Partly Cloudy,250,2012-12-04 16:00:00
5:30 PM,57.2,33.8,41,29.56,6.2,WSW,26.5,40.3,N/A,,Partly Cloudy,250,2012-12-04 16:30:00
6:00 PM,53.6,39.2,58,29.56,6.2,West,21.9,-,N/A,,Partly Cloudy,260,2012-12-04 17:00:00
6:30 PM,53.6,35.6,51,29.56,6.2,WSW,19.6,-,N/A,,Partly Cloudy,240,2012-12-04 17:30:00
7:00 PM,54,31,30,29.58,9,WSW,12.7,,,Rain,Light Rain Showers,250,2012-12-04 18:00:00
7:00 PM,55.4,32.0,41,29.56,6.2,WSW,12.7,24.2,N/A,,Partly Cloudy,240,2012-12-04 18:00:00
7:30 PM,53.6,32.0,44,29.56,6.2,West,21.9,34.5,N/A,,Partly Cloudy,270,2012-12-04 18:30:00
8:00 PM,53.6,30.2,41,29.59,6.2,West,27.6,47.2,N/A,,Partly Cloudy,270,2012-12-04 19:00:00
8:30 PM,53.6,30.2,41,29.59,6.2,West,23.0,39.1,N/A,,Partly Cloudy,270,2012-12-04 19:30:00
9:00 PM,53.6,32.0,44,29.59,6.2,West,27.6,42.6,N/A,,Scattered Clouds,270,2012-12-04 20:00:00
9:30 PM,53.6,33.8,47,29.59,6.2,West,21.9,-,N/A,,Scattered Clouds,260,2012-12-04 20:30:00
10:00 PM,53.6,32.0,44,29.59,6.2,West,16.1,27.6,N/A,,Scattered Clouds,260,2012-12-04 21:00:00
10:30 PM,53.6,33.8,47,29.62,6.2,West,10.4,-,N/A,,Mostly Cloudy,270,2012-12-04 21:30:00
11:00 PM,55.4,35.6,47,29.62,6.2,WNW,13.8,-,N/A,,Scattered Clouds,290,2012-12-04 22:00:00
11:30 PM,53.6,33.8,47,29.62,6.2,West,17.3,29.9,N/A,,Scattered Clouds,270,2012-12-04 22:30:00